DW7955 Weather Reports


time (UTC)temp
F
wind
direction
speed
knots
gust
knots
rain 1hr
in
rain 24hr
in
rain mn
in
humidity
%
barometer
mb
20260503001523 68 117 4.3 13.0 0.00 0.00 0.00 16 1013.3
20260503000021 68 64 6.1 9.6 0.00 0.00 0.00 16 1013.6
20260502234527 68 99 2.6 9.6 0.00 0.00 0.00 16 1013.7
20260502233019 69 117 4.3 7.0 0.00 0.00 0.00 16 1013.8
20260502231518 69 275 0.0 9.6 0.00 0.00 0.00 17 1013.9
20260502230022 69 138 1.7 7.0 0.00 0.00 0.00 17 1014.1
20260502224515 68 1 3.5 6.1 0.00 0.00 0.00 18 1014.2
20260502223014 68 77 2.6 7.8 0.00 0.00 0.00 18 1014.4
20260502221512 69 105 5.2 8.7 0.00 0.00 0.00 17 1014.6
20260502220009 69 252 0.0 6.1 0.00 0.00 0.00 19 1015.0
20260502214506 68 180 4.3 7.8 0.00 0.00 0.00 18 1015.3
20260502213004 68 208 4.3 8.7 0.00 0.00 0.00 20 1015.5
20260502211505 69 163 2.6 6.1 0.00 0.00 0.00 20 1015.7
20260502210115 67 21 2.6 7.8 0.00 0.00 0.00 20 1016.0
20260502204558 67 25 2.6 10.4 0.00 0.00 0.00 19 1016.4
20260502203053 67 244 2.6 7.0 0.00 0.00 0.00 19 1016.6
20260502201553 66 74 4.3 9.6 0.00 0.00 0.00 21 1016.9
20260502200050 66 200 2.6 7.8 0.00 0.00 0.00 20 1017.2
20260502194545 64 109 2.6 8.7 0.00 0.00 0.00 20 1017.4
20260502193043 65 180 3.5 7.8 0.00 0.00 0.00 20 1017.5
20260502191551 64 190 5.2 8.7 0.00 0.00 0.00 20 1017.8
20260502190041 64 206 3.5 8.7 0.00 0.00 0.00 20 1017.9
20260502184547 63 168 6.1 12.2 0.00 0.00 0.00 20 1018.2
20260502183054 63 139 6.1 9.6 0.00 0.00 0.00 21 1018.5
20260502181540 64 112 4.3 7.8 0.00 0.00 0.00 21 1018.7
20260502163016 60 330 4.3 7.8 0.00 0.00 0.00 24 1019.6
20260502161511 59 215 3.5 7.0 0.00 0.00 0.00 31 1019.6
20260502151605 55 253 2.6 7.8 0.00 0.00 0.00 44 1020.1
20260502123025 39 297 1.7 5.2 0.00 0.00 0.00 73 1020.6
20260502121517 39 325 0.9 3.5 0.00 0.00 0.00 74 1020.6
20260502114516 38 294 0.0 0.0 0.00 0.00 0.00 75 1020.5
20260502113015 38 294 0.0 0.0 0.00 0.00 0.00 75 1020.3
20260502111518 39 294 0.0 3.5 0.00 0.00 0.00 74 1020.4
20260502110014 39 294 0.9 3.5 0.00 0.00 0.00 74 1020.3
20260502104511 39 302 1.7 4.3 0.00 0.00 0.00 74 1020.3
20260502103009 39 333 0.9 4.3 0.00 0.00 0.00 76 1020.3
20260502101507 39 296 0.9 4.3 0.00 0.00 0.00 75 1020.1
20260502090113 41 302 0.0 2.6 0.00 0.00 0.00 75 1019.8
20260502070042 42 305 0.0 1.7 0.00 0.00 0.00 75 1019.7
20260502064540 43 305 0.0 1.7 0.00 0.00 0.00 73 1019.7
20260502063038 44 305 0.9 5.2 0.00 0.00 0.00 73 1019.7
20260502061534 44 265 0.0 0.9 0.00 0.00 0.00 72 1019.7
20260502060032 44 265 0.0 4.3 0.00 0.01 0.00 71 1019.7
20260502054532 45 297 0.0 3.5 0.00 0.01 0.00 70 1019.6
20260502053031 44 266 0.0 0.0 0.00 0.01 0.00 70 1019.4
20260502051535 45 266 0.0 0.9 0.00 0.01 0.00 69 1019.3
20260502050037 45 182 0.0 0.9 0.00 0.04 0.00 71 1019.3
20260502044531 45 182 0.0 0.0 0.00 0.04 0.00 70 1019.3
20260502043030 45 182 0.0 0.0 0.00 0.04 0.00 70 1019.2
20260502041542 46 182 0.0 0.0 0.00 0.04 0.00 67 1019.3
20260502040029 47 182 0.0 0.0 0.00 0.05 0.00 66 1019.3
20260502034529 48 182 0.0 1.7 0.00 0.05 0.00 64 1019.2
20260502033030 48 142 0.9 2.6 0.00 0.05 0.00 63 1019.1
20260502031528 49 142 0.0 0.0 0.00 0.05 0.00 60 1018.9
20260502030027 49 142 0.0 0.0 0.00 0.06 0.00 56 1018.7
20260502024527 50 142 0.0 0.0 0.00 0.06 0.00 56 1018.5
20260502023027 52 142 0.0 0.9 0.00 0.06 0.00 51 1018.3
20260502021527 53 142 0.0 2.6 0.00 0.06 0.00 47 1018.1
20260502020025 54 142 0.0 0.9 0.00 0.10 0.00 44 1018.0
20260502014528 54 142 0.9 2.6 0.00 0.10 0.00 41 1017.9
20260502013025 55 142 0.9 3.5 0.00 0.10 0.00 40 1017.8
20260502011525 56 164 2.6 4.3 0.00 0.10 0.00 38 1017.6
20260502010025 56 65 0.9 4.3 0.00 0.12 0.00 37 1017.7
20260502004524 56 92 3.5 7.8 0.00 0.12 0.00 37 1017.6
20260502003022 57 45 0.0 7.0 0.00 0.12 0.00 36 1017.6